Location: L�tisburg
(47.3947°N, 9.0820°E)
Time: 23:24:29
(UTC+00:00)

Cosmos 1515 - Pass Details

Date: 03 March 2021
Orbit: 504 x 516 km, 82.5° (Epoch: 14 April)

Event Time Altitude Azimuth Distance (km) Brightness Sun altitude
Rises 17:54:09 0° 353° (N) 2,647 7.4 -8.0°
Reaches altitude 10° 17:56:19 10° 356° (N) 1,753 6.4 -8.3°
Maximum altitude 18:00:08 67° 79° (ENE) 564 3.6 -9.0°
Drops below altitude 10° 18:03:55 10° 163° (SSE) 1,732 6.2 -9.6°
Sets 18:06:03 0° 166° (SSE) 2,611 7.1 -10.0°
